* Astronomy

Members Login
Post Info TOPIC: Asteroid 2006 HF6


L

Posts: 131433
Date:
Asteroid 2006 HF6
Permalink  
 


Asteroid 2006 HF6 will make a near-Earth flyby (0.013 AU) on the 19th April, 2011.

Orbital elements:
2006 HF6                                                 Earth MOID = 0.0027 AU
Epoch 2006 Mar. 6.0 TT = JDT 2453800.5                  MPC
M   5.94793              (2000.0)            P               Q
n   0.58341866     Peri.   86.65334     -0.43973079     -0.89637331
a   1.4184559      Node    29.63715     +0.77234901     -0.40931058
e   0.5527926      Incl.    6.51872     +0.45838176     -0.17023436
P   1.69           H   24.2           G   0.15           U   7

MPEC 2006 - H25



__________________
Page 1 of 1  sorted by
Quick Reply

Please log in to post quick replies.



Create your own FREE Forum
Report Abuse
Powered by ActiveBoard